K7JKM Weather Reports


Display with metric or nautical units.
time (UTC)temp
F
wind
direction
speed
MPH
gust
MPH
rain 1hr
in
rain 24hr
in
rain mn
in
humidity
%
barometer
mb
20200226184626 52 65 1.0 4.0 0.00 0.00 0.00 58 1034.1
20200226183203 52 76 1.0 2.0 0.00 0.00 0.00 59 1034.0
20200226181541 51 72 1.0 5.0 0.00 0.00 0.00 60 1034.0
20200226180200 51 3 1.0 3.0 0.00 0.00 0.00 59 1034.0
20200226174538 49 352 0.0 2.0 0.00 0.00 0.00 61 1033.9
20200226171535 48 79 0.0 1.0 0.00 0.00 0.00 63 1034.3
20200226170013 47 41 0.0 2.0 0.00 0.00 0.00 66 1034.2
20200226164610 46 46 0.0 1.0 0.00 0.00 0.00 68 1034.2
20200226163155 46 70 0.0 1.0 0.00 0.00 0.00 70 1034.0
20200226161540 45 62 0.0 0.0 0.00 0.00 0.00 70 1033.9
20200226160158 45 62 0.0 0.0 0.00 0.00 0.00 70 1033.5
20200226154556 44 62 0.0 0.0 0.00 0.00 0.00 70 1033.3
20200226153106 44 62 0.0 0.0 0.00 0.00 0.00 70 1033.0
20200226151605 44 61 0.0 0.0 0.00 0.00 0.00 70 1032.7
20200226150130 44 61 0.0 0.0 0.00 0.00 0.00 70 1032.6
20200226144546 44 61 0.0 1.0 0.00 0.00 0.00 70 1032.5
20200226143155 44 63 0.0 0.0 0.00 0.00 0.00 71 1032.3
20200226141558 44 63 0.0 0.0 0.00 0.00 0.00 71 1032.3
20200226140215 43 63 0.0 0.0 0.00 0.00 0.00 70 1032.2
20200226134521 44 63 0.0 0.0 0.00 0.00 0.00 70 1032.2
20200226133201 44 63 0.0 0.0 0.00 0.00 0.00 70 1032.1
20200226131521 44 63 0.0 0.0 0.00 0.00 0.00 69 1032.0
20200226130114 44 63 0.0 0.0 0.00 0.00 0.00 69 1031.9
20200226124525 44 63 0.0 0.0 0.00 0.00 0.00 69 1031.9
20200226123140 44 63 0.0 0.0 0.00 0.00 0.00 69 1031.9
20200226121548 44 63 0.0 0.0 0.00 0.00 0.00 69 1031.9
20200226120129 44 63 0.0 0.0 0.00 0.00 0.00 69 1031.8
20200226114533 44 63 0.0 0.0 0.00 0.00 0.00 69 1031.7
20200226113126 44 61 0.0 0.0 0.00 0.00 0.00 69 1031.5
20200226111601 44 61 0.0 0.0 0.00 0.00 0.00 69 1031.5
20200226110126 44 61 0.0 0.0 0.00 0.00 0.00 69 1031.3
20200226104526 43 61 0.0 0.0 0.00 0.00 0.00 69 1031.2
20200226103140 43 62 0.0 0.0 0.00 0.00 0.00 70 1031.1
20200226101630 43 61 0.0 0.0 0.00 0.00 0.00 70 1031.2
20200226100155 43 61 0.0 0.0 0.00 0.00 0.00 70 1031.1
20200226094628 43 61 0.0 0.0 0.00 0.00 0.00 70 1031.1
20200226093220 43 61 0.0 0.0 0.00 0.00 0.00 70 1031.0
20200226091548 42 61 0.0 0.0 0.00 0.00 0.00 71 1030.9
20200226090248 42 61 0.0 0.0 0.00 0.00 0.00 70 1030.9
20200226084621 42 61 0.0 0.0 0.00 0.00 0.00 70 1030.9
20200226083145 43 61 0.0 0.0 0.00 0.00 0.00 70 1030.9
20200226081536 42 61 0.0 0.0 0.00 0.00 0.00 70 1030.7
20200226080309 43 61 0.0 0.0 0.00 0.00 0.00 69 1030.8
20200226074517 43 61 0.0 0.0 0.00 0.00 0.00 69 1030.9
20200226073214 43 61 0.0 0.0 0.00 0.00 0.00 69 1031.1
20200226071525 42 61 0.0 0.0 0.00 0.00 0.00 70 1031.2
20200226070122 42 61 0.0 0.0 0.00 0.00 0.00 71 1031.4
20200226064544 42 61 0.0 0.0 0.00 0.00 0.00 71 1031.5
20200226063056 41 62 0.0 0.0 0.00 0.00 0.00 71 1031.5
20200226061516 41 61 0.0 0.0 0.00 0.00 0.00 71 1031.5
20200226060149 42 61 0.0 0.0 0.00 0.00 0.00 70 1031.4
20200226054532 43 61 0.0 0.0 0.00 0.00 0.00 69 1031.4
20200226053135 44 61 0.0 0.0 0.00 0.00 0.00 68 1031.4
20200226051537 45 61 0.0 0.0 0.00 0.00 0.00 66 1031.4
20200226050228 46 61 0.0 0.0 0.00 0.00 0.00 65 1031.2
20200226044558 47 61 0.0 0.0 0.00 0.00 0.00 64 1031.1
20200226043102 47 61 0.0 0.0 0.00 0.00 0.00 63 1031.0
20200226041532 48 61 0.0 0.0 0.00 0.00 0.00 61 1031.0
20200226040141 48 61 0.0 0.0 0.00 0.00 0.00 61 1030.9
20200226034625 48 61 0.0 0.0 0.00 0.00 0.00 62 1031.0
20200226031539 48 61 0.0 0.0 0.00 0.00 0.00 62 1031.1
20200226030234 48 61 0.0 0.0 0.00 0.00 0.00 62 1031.2
20200226024634 49 61 0.0 0.0 0.00 0.00 0.00 61 1031.0
20200226021609 50 64 0.0 1.0 0.00 0.00 0.00 58 1030.5
20200226014533 51 73 0.0 0.0 0.00 0.00 0.00 52 1031.0
20200226013115 51 143 0.0 1.0 0.00 0.00 0.00 50 1031.0
20200226011533 52 157 0.0 0.0 0.00 0.00 0.00 49 1031.0
20200226004642 53 157 0.0 0.0 0.00 0.00 0.00 47 1031.5
20200226003002 53 158 0.0 1.0 0.00 0.00 0.00 47 1031.6
20200226001600 53 186 0.0 1.0 0.00 0.00 0.00 46 1031.8
20200226000003 53 63 0.0 2.0 0.00 0.00 0.00 44 1032.1
20200225234546 54 148 0.0 2.0 0.00 0.00 0.00 44 1032.3
20200225233008 54 128 0.0 1.0 0.00 0.00 0.00 46 1032.2
20200225231610 53 79 1.0 2.0 0.00 0.00 0.00 46 1032.0
20200225230008 54 1 1.0 4.0 0.00 0.00 0.00 45 1032.2
20200225224622 53 254 0.0 3.0 0.00 0.00 0.00 50 1032.5
20200225223006 53 79 1.0 4.0 0.00 0.00 0.00 54 1032.7
20200225221627 53 72 0.0 4.0 0.00 0.00 0.00 53 1032.6
20200225220016 52 61 0.0 3.0 0.00 0.00 0.00 54 1032.8
20200225214607 51 55 0.0 3.0 0.00 0.00 0.00 53 1032.9
20200225213010 50 63 1.0 4.0 0.00 0.00 0.00 55 1033.2
20200225211603 50 65 1.0 4.0 0.00 0.00 0.00 57 1033.4
20200225210013 49 53 1.0 3.0 0.00 0.00 0.00 54 1033.7
20200225204610 48 60 1.0 3.0 0.00 0.00 0.00 55 1033.9
20200225203015 48 4 0.0 3.0 0.00 0.00 0.00 57 1034.1
20200225201621 47 79 0.0 3.0 0.00 0.00 0.00 63 1034.4
20200225200001 46 21 1.0 5.0 0.00 0.00 0.00 64 1034.5
20200225194543 45 75 0.0 3.0 0.00 0.00 0.00 67 1034.7
20200225193003 44 67 0.0 2.0 0.00 0.00 0.00 69 1034.7
20200225191635 42 283 2.0 4.0 0.00 0.00 0.00 70 1034.6
20200225190006 41 279 0.0 3.0 0.00 0.00 0.00 73 1034.7